This is the latest recevied weather packets stored in our database for station/object K1RFS. If no packets are shown the sender has not sent any weather packets the latest 10 day(s).
| Time | Temp. | Humidity | Pressure | Rain* | Wind** | Luminosity | Snow |
|---|---|---|---|---|---|---|---|
| 1787809348 | 25.56° C | 38% | 1007.1 hPa | 0 mm | - | 0 W/m² | - |
| 1787809044 | 25.56° C | 37% | 1007.2 hPa | 0 mm | - | 0 W/m² | - |
| 1787808740 | 25.56° C | 37% | 1007.1 hPa | 0 mm | - | 0 W/m² | - |
| 1787808439 | 25.56° C | 37% | 1007.1 hPa | 0 mm | - | 0 W/m² | - |
| 1787808138 | 25.56° C | 37% | 1007.1 hPa | 0 mm | - | 0 W/m² | - |
| 1787807832 | 25.56° C | 36% | 1007 hPa | 0 mm | - | 0 W/m² | - |
| 1787807526 | 25.56° C | 36% | 1007.1 hPa | 0 mm | - | 0 W/m² | - |
| 1787807223 | 25° C | 36% | 1007 hPa | 0 mm | - | 0 W/m² | - |
| 1787806918 | 25° C | 36% | 1006.8 hPa | 0 mm | - | 0 W/m² | - |
| 1787806616 | 24.44° C | 36% | 1006.6 hPa | 0 mm | - | 0 W/m² | - |
| 1787806310 | 24.44° C | 38% | 1007 hPa | 0 mm | - | 0 W/m² | - |
| 1787806005 | 25° C | 38% | 1007.1 hPa | 0 mm | - | 0 W/m² | - |
| 1787805701 | 25° C | 36% | 1006.9 hPa | 0 mm | - | 0 W/m² | - |
| 1787805397 | 24.44° C | 38% | 1006.8 hPa | 0 mm | - | 0 W/m² | - |
| 1787805096 | 23.89° C | 39% | 1006.8 hPa | 0 mm | - | 0 W/m² | - |
| 1787804790 | 23.89° C | 40% | 1006.6 hPa | 0 mm | - | 0 W/m² | - |
| 1787804485 | 23.33° C | 41% | 1006.6 hPa | 0 mm | - | 0 W/m² | - |
| 1787804185 | 23.33° C | 42% | 1006.5 hPa | 0 mm | - | 0 W/m² | - |
| 1787803880 | 23.89° C | 43% | 1006.5 hPa | 0 mm | - | 0 W/m² | - |
| 1787803580 | 23.89° C | 43% | 1006.6 hPa | 0 mm | - | 0 W/m² | - |
| 1787803278 | 23.89° C | 43% | 1006.4 hPa | 0 mm | - | 0 W/m² | - |
| 1787802974 | 23.89° C | 42% | 1006.2 hPa | 0 mm | - | 0 W/m² | - |
| 1787802673 | 23.89° C | 42% | 1006.2 hPa | 0 mm | - | 0 W/m² | - |
| 1787802372 | 23.33° C | 43% | 1006.2 hPa | 0 mm | - | 0 W/m² | - |
| 1787802066 | 23.33° C | 43% | 1006.2 hPa | 0 mm | - | 0 W/m² | - |
* Rain latest hour (hover to see other rain measurements)
** Current wind speed in m/s (hover to see current wind gust speed)